Powrót do katalogu

STARLINK-5331

AktywnyŁącznośćVLEO
NORAD 55280·PAYLOAD·🇺🇸 United States

Wystrzelony Jan 19, 2023 z Vandenberg Space Force Base

Loading…

Następne Przeloty (najbliższe 24 godziny)

TLE

ŚwieżeSource: CelesTrak SupGP

Epoka: Sep 15, 2026, 02:47 UTC

1 55280C 23010M   26258.11645833  .00445580  00000+0  37253-1 0  2584
2 55280  69.9997 286.9900 0003725 270.3691 185.5382 14.98196044    19

Śledź STARLINK-5331 w czasie rzeczywistym z AllMySat

Download on the App Store